Weather History for Orangeburg, SC

Change the Weather History Date:

Saturday, December 22, 2012

  Actual Average Record
Temperature  
Mean Temperature 45 °F 46 °F  
Max Temperature 58 °F 57 °F 80 °F (2013)
Min Temperature 31 °F 36 °F 17 °F (1976)
Degree Days  
Heating Degree Days 20 19  
Month to date heating degree days 199 363  
Since 1 July heating degree days 649 732  
Cooling Degree Days 0 0  
Month to date cooling degree days 2 0  
Year to date cooling degree days 2322 2102  
Moisture  
Dew Point 19 °F    
Average Humidity 41    
Maximum Humidity 64    
Minimum Humidity 19    
Precipitation  
Precipitation 0.00 in 0.11 in 1.66 in (2006)
Month to date precipitation 1.85 2.47  
Year to date precipitation 40.15 45.88  
Sea Level Pressure  
Sea Level Pressure 30.12 in    
Wind  
Wind Speed 8 mph (West)    
Max Wind Speed 20 mph    
Max Gust Speed 26 mph    
Visibility 10 miles    
Events      
T = Trace of Precipitation, MM = Missing Value Source: NWS Daily Summary

Daily Weather History Graph

Daily Weather History Graph

Search for Another Location

Airport:

Trip Planner

Search our weather history database for the weather conditions in past years. The results will help you decide how hot, cold, wet, or windy it might be!

Date:

Astronomy

Dec. 22, 2012 Rise Set
Actual Time 7:24 AM EST 5:20 PM EST
Civil Twilight 6:56 AM EST 5:48 PM EST
Nautical Twilight 6:25 AM EST 6:19 PM EST
Astronomical Twilight 5:55 AM EST 6:49 PM EST
Moon 1:29 PM EST (12/22) 2:17 AM EST (12/22)
Length of Visible Light 10h 51m
Length of Day
9h 56m
Waxing Gibbous, 73% of the Moon is Illuminated
Dec 22
Waxing Gibbous
Dec 28
Full
Jan 4
Last Quarter
Jan 11
New
Jan 18
First Quarter

Hourly Weather History & Observations

Time (EST) Temp. Windchill Dew Point Humidity Pressure Visibility Wind Dir Wind Speed Gust Speed Precip Events Conditions
12:53 AM 39.9 °F 31.4 °F 17.1 °F 40% 30.00 in 10.0 mi West 16.1 mph 20.7 mph N/A   Clear
1:53 AM 39.9 °F 32.5 °F 17.1 °F 40% 30.02 in 10.0 mi WNW 12.7 mph 21.9 mph N/A   Clear
2:53 AM 39.0 °F 31.0 °F 16.0 °F 39% 30.04 in 10.0 mi West 13.8 mph 20.7 mph N/A   Clear
3:53 AM 37.0 °F 31.0 °F 17.1 °F 44% 30.05 in 10.0 mi West 8.1 mph - N/A   Clear
4:53 AM 35.1 °F 27.9 °F 17.1 °F 48% 30.06 in 10.0 mi West 9.2 mph - N/A   Clear
5:53 AM 35.1 °F 26.9 °F 17.1 °F 48% 30.09 in 10.0 mi West 11.5 mph - N/A   Clear
7:53 AM 33.1 °F 27.7 °F 18.0 °F 54% 30.14 in 10.0 mi West 5.8 mph - N/A   Clear
8:53 AM 37.0 °F 30.4 °F 17.1 °F 44% 30.15 in 10.0 mi West 9.2 mph - N/A   Clear
9:53 AM 42.1 °F 37.7 °F 17.1 °F 37% 30.19 in 10.0 mi Variable 6.9 mph - N/A   Clear
10:53 AM 45.0 °F 41.8 °F 16.0 °F 31% 30.18 in 10.0 mi WNW 5.8 mph - N/A   Clear
11:53 AM 50.0 °F - 15.1 °F 25% 30.17 in 10.0 mi WNW 6.9 mph - N/A   Clear
12:53 PM 53.1 °F - 12.9 °F 20% 30.13 in 10.0 mi WNW 8.1 mph - N/A   Clear
1:53 PM 55.9 °F - 16.0 °F 21% 30.12 in 10.0 mi West 6.9 mph - N/A   Clear
2:53 PM 57.0 °F - 15.1 °F 19% 30.11 in 10.0 mi West 11.5 mph - N/A   Clear
3:53 PM 57.0 °F - 17.1 °F 21% 30.12 in 10.0 mi West 11.5 mph - N/A   Clear
4:53 PM 54.0 °F - 18.0 °F 24% 30.13 in 10.0 mi WSW 6.9 mph - N/A   Clear
5:53 PM 48.0 °F - 21.9 °F 36% 30.14 in 10.0 mi WSW 5.8 mph - N/A   Clear
6:53 PM 45.0 °F - 21.9 °F 40% 30.15 in 10.0 mi Calm Calm - N/A   Clear
7:53 PM 39.9 °F 36.7 °F 25.0 °F 55% 30.17 in 10.0 mi SSW 4.6 mph - N/A   Clear
8:53 PM 37.9 °F 34.4 °F 27.0 °F 65% 30.17 in 10.0 mi WSW 4.6 mph - N/A   Clear
9:53 PM 37.0 °F - 24.1 °F 59% 30.17 in 10.0 mi Calm Calm - N/A   Clear
10:53 PM 36.0 °F 33.3 °F 24.1 °F 62% 30.17 in 10.0 mi SW 3.5 mph - N/A   Clear
11:53 PM 34.0 °F 31.0 °F 25.0 °F 70% 30.16 in 10.0 mi SW 3.5 mph - N/A   Clear